Regional Weather Roundup
Issued by NWS

Home | Current Version | Previous Version | Graphics & Text | Print | Product List | Glossary On
Versions: 1 2 3 4 5 6 7 8 9 10 11 12 13 14 15 16 17 18 19 20 21 22 23 24 25 26 27
000
ASUS45 KBOU 272207
RWRCO

WEATHER ROUNDUP FOR COLORADO
NATIONAL WEATHER SERVICE DENVER/BOULDER CO
400 PM MDT TUE JUN 27 2017

NOTE: "FAIR" INDICATES FEW OR NO CLOUDS BELOW 12000 FEET WITH NO
SIGNIFICANT WEATHER AND/OR OBSTRUCTIONS TO VISIBILITY.

COZ001>005-013-030-031-272300-
...NORTHWEST COLORADO...

CITY           SKY/WX    TMP DP  RH WIND       PRES   REMARKS
CRAIG          FAIR      91  15   6 W26G37    29.94F
HAYDEN         FAIR      84  25  11 W20G30    29.97F
MEEKER         FAIR      88  12   6 W14G36    29.96F
RABBIT EARS PA FAIR      63  25  23 W10G24    30.31F
STEAMBOAT SPGS FAIR      80  28  15 SW10      30.00F
WALDEN         FAIR      77  23  13 W17G26    30.11F
$$

COZ006>008-011-272300-
...WEST CENTRAL VALLEYS...

CITY           SKY/WX    TMP DP  RH WIND       PRES   REMARKS
GRAND JUNCTION FAIR      96  14   5 NW12      29.86F
MONTROSE       FAIR      91  22   8 W16G31    29.98F
EAGLE          MOSUNNY   86  25  10 W24G32    30.00F
RIFLE          FAIR      94   6   4 W23G36    29.91F
DELTA          FAIR      98  21   6 SW12G30   29.91F
NUCLA          FAIR      91  18   6 SW12G31   30.03F
$$

COZ017>023-064>068-272300-
...SOUTHWEST COLORADO...

CITY           SKY/WX    TMP DP  RH WIND       PRES   REMARKS
DURANGO        FAIR      88  23   9 W21       30.08F
CORTEZ         FAIR      93  16   6 SW13G28   30.01F
PAGOSA SPRINGS FAIR      83  17   8 W18G26    30.18F
TELLURIDE      FAIR      75  21  13 SW10G28   30.30F
WOLF CREEK PAS FAIR      59  28  31 SW15G32   30.54F
$$

COZ009-010-012-014-032>034-037-058>063-272300-
...CENTRAL COLORADO...

CITY           SKY/WX    TMP DP  RH WIND       PRES   REMARKS
ASPEN          FAIR      82  20  10 NW10G17   30.11F
BUENA VISTA    FAIR      83  17   8 W12G26    30.09F
COPPER MTN     FAIR      64  14  14 W22G29    30.45S
BERTHOUD PASS  FAIR      54  41  62 NW35G46   30.45F
COTTONWOOD PAS FAIR      79   1   5 N8G17     30.24F
GUNNISON       FAIR      81  32  17 W20G26    30.12S
KREMMLING      FAIR      91   9   4 W18G30    30.05F
LEADVILLE      FAIR      69  17  13 W14G23    30.27S
MONARCH PASS   FAIR      63  21  20 W39G52    30.53F
SALIDA         FAIR      87  22   9 W21G29    30.13F
SUNLIGHT       FAIR      70  23  17 SW16G29   30.37S
WILKERSON PASS FAIR      70  14  11 SW9G25    30.38S
$$

COZ069>075-272300-
...SAN LUIS VALLEY/SANGRE DE CRISTO MOUNTAINS...

CITY           SKY/WX    TMP DP  RH WIND       PRES   REMARKS
ALAMOSA        FAIR      83  28  13 SW23      30.10F
DEL NORTE      FAIR      82  29  14 W28G39    30.13F
LA VETA PASS   FAIR      73  32  21 MISG      30.41F
SAGUACHE       FAIR      79  34  19 S6        30.13F
$$

COZ035-036-038>040-272300-
...NORTHERN COLORADO FRONT RANGE...

CITY           SKY/WX    TMP DP  RH WIND       PRES   REMARKS
DENVER INTL AP PTSUNNY   96  29   9 NW10      29.81F
DMNS CITY PARK   N/A     88  39  18 E5        29.79S
AURORA         PTSUNNY   92  30  10 S3        29.83F
FRONT RANGE AP FAIR      93  30  10 NW12      29.83F
ERIE MUNI ARPT FAIR      92  31  11 SW3       29.78F
BOULDER MUN AP FAIR      95  32  11 W21G29    29.80R
CENTENNIAL     PTSUNNY   86  30  13 E8G18     29.84F
BROOMFIELD     FAIR      91  34  13 E8        29.83F
FORT COLLINS   FAIR      92  39  15 N17       29.78F
LONGMONT       FAIR      99  31   9 W17G25    29.79S
$$

COZ041-046-047-076>085-087-088-272300-
...PIKES PEAK/PALMER DIVIDE AND SOUTHERN FOOTHILLS...

CITY           SKY/WX    TMP DP  RH WIND       PRES   REMARKS
COLO. SPRINGS  FAIR      89  26  10 S13       29.91F
A. F. ACADEMY  FAIR      87  29  12 W6        29.92F
SCHRIEVER AFB  FAIR      88  30  12 SW13G35   29.91F
CHEYENNE MTN   FAIR      85  29  13 SE23G32   29.90F
ELLICOTT       FAIR     N/A N/A N/A SW23G30   29.89F
FALCON           N/A     90  28  10 SW18G26   29.98F
FORT CARSON    FAIR      91  31  11 SW24G30   29.86F
LIMON          FAIR      89  34  14 SE14      29.85F
MONUMENT HILL  FAIR      82  28  14 SW9       29.97F
CANON CITY     SUNNY     99  36  11 MISG      29.85F
WALSENBURG     NOT AVBL
TRINIDAD       FAIR      85  45  24 SE6       29.94F
$$

COZ042>045-048>051-090-091-272300-
...NORTHEAST COLORADO...

CITY           SKY/WX    TMP DP  RH WIND       PRES   REMARKS
GREELEY ARPT   FAIR      96  40  14 NW14      29.75R
AKRON          FAIR      92  31  11 S16G23    29.78R
BURLINGTON     FAIR      88  46  23 NW10      29.81
WRAY           FAIR      86  37  17 SW17G30   29.75R
YUMA           FAIR      86  45  23 S23G31    29.74F
STERLING       FAIR      99  39  12 SW7       29.67F
HOLYOKE        NOT AVBL
FORT MORGAN    FAIR      99  31   9 SW14G22   29.73F
$$

COZ086-089-092>099-272300-
...SOUTHEAST COLORADO...

CITY           SKY/WX    TMP DP  RH WIND       PRES   REMARKS
PUEBLO         FAIR      98  40  13 S7        29.78F
LA JUNTA       FAIR      93  41  16 SW25G31   29.79F
LAMAR          FAIR     101  44  14 SW17G29   29.72
SPRINGFIELD      N/A     87  48  25 S26G35    29.87F
$$




USA.gov is the U.S. government's official web portal to all federal, state and local government web resources and services.